Regional Weather Roundup
Issued by NWS Huntsville, AL

Home | Current Version | Previous Version | Text Only | Print | Product List | Glossary On
Versions: 1 2 3 4 5 6 7 8 9 10 11 12 13 14 15 16 17 18 19 20 21 22 23 24 25 26 27
000
ASUS44 KHUN 240810
RWRHUN

WEATHER ROUNDUP FOR THE TENNESSEE VALLEY
NATIONAL WEATHER SERVICE HUNTSVILLE AL
300 AM CDT WED MAY 24 2017

ALZ001>004-240900-
NORTHWEST ALABAMA

CITY           SKY/WX    TMP DP  RH WIND       PRES   REMARKS
COURTLAND HCN    N/A     64 N/A N/A SE3         N/A
RUSSELLVILLE     N/A     64 N/A N/A MISG        N/A
SHOALS AIRPORT TSTM      64  61  90 SW9       29.60F FOG
SHOALS TVA RES   N/A     64 N/A N/A MISG        N/A
$$

ALZ005>007-016-240900-
NORTH CENTRAL ALABAMA

CITY           SKY/WX    TMP DP  RH WIND       PRES   REMARKS
CULLMAN AG STN   N/A     64 N/A N/A CALM        N/A
DECATUR AP     PTCLDY    63  63 100 S6        29.60F
HUNTSVILLE AP  CLOUDY    67  66  97 S7        29.59F
MERIDIANVILLE  CLOUDY    64  63  94 CALM      29.59F
REDSTONE ARSN  CLOUDY    65  64  98 S7        29.58F
VINEMONT AP    CLOUDY    64  63  97 S5        29.62F FOG
$$

ALZ008>010-240900-
NORTHEAST ALABAMA

CITY           SKY/WX    TMP DP  RH WIND       PRES   REMARKS
ALBERTVILLE    CLOUDY    63  63 100 SW6       29.61F
FORT PAYNE     NOT AVBL
SCOTTSBORO AP  CLOUDY    66  66 100 CALM      29.60F
SCOTTSBORO HCN   N/A     64 N/A N/A MISG        N/A
VALLEY HEAD      N/A     63 N/A N/A MISG        N/A
$$

TNZ076-096-097-240900-
SOUTHEASTERN MIDDLE TENNESSEE

CITY           SKY/WX    TMP DP  RH WIND       PRES   REMARKS
TULLAHOMA      CLOUDY    63  63 100 SE3       29.60F
WINCHESTER     PTCLDY    63  63 100 SE3         N/A
$$

...SURROUNDING SITES...

CITY           SKY/WX    TMP DP  RH WIND       PRES   REMARKS
ATLANTA        CLOUDY    66  64  93 S7        29.65F
ANNISTON       CLOUDY    62  62 100 SW5       29.63F
BIRMINGHAM     MOCLDY    66  65  96 CALM      29.64F
CHATTANOOGA    CLOUDY    64  62  93 SE3       29.60F
CORINTH        DRIZZLE   61  59  94 NW3       29.59F
DALTON         CLOUDY    61  61 100 CALM      29.62F
GADSDEN        CLOUDY    64  63  96 W3        29.62F
GOLDEN TRNGL   CLOUDY    64  57  77 W5        29.59F
HALEYVILLE     LGT RAIN  63  62  97 W6        29.63F
JACKSON TN     LGT RAIN  62  61  96 W6        29.60F
MEMPHIS        LGT RAIN  61  60  97 N7        29.60F
NASHVILLE      CLOUDY    66  60  81 CALM      29.58F
OXFORD MS      LGT RAIN  57  57 100 NW7       29.63F
ROME           CLOUDY    63  63 100 SE3       29.62F
SAVANNAH       MOCLDY    63  61  94 CALM      29.58F
SELMER         CLOUDY    61  59  94 CALM      29.59S
TUPELO         CLOUDY    63  60  90 SW5       29.60F
TUSCALOOSA     CLOUDY    67  66  97 S5        29.61F
$$

...GULF COAST WEATHER...

CITY           SKY/WX    TMP DP  RH WIND       PRES   REMARKS
GULFPORT       CLOUDY    71  68  90 CALM      29.68F
PASCAGOULA     CLOUDY    71  67  87 W3        29.70R
MOBILE         CLOUDY    70  67  90 CALM      29.69F
GULF SHORES    RAIN      74  74 100 W7        29.67F
PENSACOLA      MOCLDY    77  71  82 SW18      29.66F THUNDER
DESTIN         PTCLDY    79  79 100 W9G20     29.67F
PANAMA CITY    CLOUDY    77  72  84 SW18G24   29.70F
APPALACHICOLA  MOCLDY    77  73  87 SW21G29   29.72F
$$





USA.gov is the U.S. government's official web portal to all federal, state and local government web resources and services.